Regional Weather Roundup
Issued by NWS

Home | Current Version | Previous Version | Graphics & Text | Print | Product List | Glossary On
Versions: 1 2 3 4 5 6 7 8 9 10 11 12 13 14 15 16 17 18 19 20 21 22 23 24 25 26 27 28 29 30 31 32 33 34 35 36 37 38 39 40 41 42 43 44 45 46 47 48 49 50
000
ASUS43 KLMK 231410
RWRKY
KENTUCKY REGIONAL WEATHER ROUNDUP
NATIONAL WEATHER SERVICE LOUISVILLE KY
1000 AM EDT SAT JUL 23 2016

NOTE "FAIR" INDICATES FEW OR NO CLOUDS BELOW 12,000 FEET
WITH NO SIGNIFICANT WEATHER AND/OR OBSTRUCTIONS TO VISIBILITY.

KYZ001>023-026-027-061>063-070>075-231500-
WESTERN AND SOUTH CENTRAL KENTUCKY

CITY           SKY/WX    TMP DP  RH WIND       PRES   REMARKS
PADUCAH        MOSUNNY   80  73  79 CALM      30.00R
HENDERSON      PTSUNNY   81  73  78 SE3       30.01R
OWENSBORO      MOSUNNY   83  76  79 SE6       30.03R HX  91
HOPKINSVILLE   MOSUNNY   81  75  81 CALM      30.02S
BOWLING GREEN  MOSUNNY   80  75  84 E3        30.03S
GLASGOW        MOSUNNY   80  77  91 CALM      30.04S
$$

KYZ024-025-028>034-038-045-046-053-231500-
NORTH CENTRAL KENTUCKY

CITY           SKY/WX    TMP DP  RH WIND       PRES   REMARKS
LOUISVILLE/SDF MOSUNNY   82  72  71 CALM      30.03S
LOUISVILLE/LOU SUNNY     82  71  69 CALM      30.04R
FORT KNOX      MOSUNNY   78  72  81 CALM      30.03S
$$

KYZ035>037-039>044-047>052-055>060-089>105-231500-
NORTHEAST KENTUCKY

CITY           SKY/WX    TMP DP  RH WIND       PRES   REMARKS
LEXINGTON      SUNNY     82  70  66 CALM      30.06S
COVINGTON      MOSUNNY   80  75  84 SE3       30.05R
FRANKFORT      SUNNY     82  70  66 CALM      30.04S
$$

KYZ054-064>069-076>088-106>120-231500-
SOUTHEAST KENTUCKY

CITY           SKY/WX    TMP DP  RH WIND       PRES   REMARKS
JACKSON        CLOUDY    78  71  79 CALM      30.08S
LONDON         MOSUNNY   81  70  69 CALM      30.07S
SOMERSET       SUNNY     77  73  88 CALM      30.07S
MIDDLESBORO    SUNNY     81  74  79 CALM      30.07F
MONTICELLO     MOSUNNY  N/A N/A N/A VRB5      30.07S
$$





USA.gov is the U.S. government's official web portal to all federal, state and local government web resources and services.